AQI (32)

Current Conditions for Foresthill, CA. Sunny, Dry   
Visibility: 10 miles
Foresthill Advisory text:

  Summary / Temperature 

Current Temperature
49.7°F
9.8°C
(24/hr Ago)
40.1°F
(Apparent temp)
44.8°F
Cool
Wind Chill Graphs
49.7°F 

49.7°F/ 9.8°C
 --- Virtual Temp: 50.8°F ---

 Temp Rate:

 24/hr Difference:

 Avg Running Temp:

 Todays High:

 Todays Low:

 Y-days High:

 Y-days Low:

 Todays WChill:

 Y-days WChill:

 Evapotranspiration:

+2.1°F/hr 

+9.6°F

47.9°F

49.7°F 1:19pm

31.3°F 7:32am

41.0°F 2:36pm

28.3°F 2:36am

25.0°F 2:26am

18.4°F 3:09am

0.049 in

115' Above Ground

 Temperature:

 6'AGL VRS 115'AGL:

 Avg Running Temp:

 Humidity:

 Todays High:

 Todays Low:

 Y-days High:

 Y-days Low:

52.0°F 

+2.3°F

49.6°F

40% 

52.0°F 1:17pm

35.0°F 4:14am

42.0°F 11:29am

32.0°F 1:46am

Temp & Humidity Graphs

  Wind 

Wind Speed

 Calm

Gusting to

 7.0 mph

Wind from W

273°  W

Calm

 Avg speed:

 Wind Run:

 Peak Gust:

  1.0 mph 

7.0 miles

  15.0 mph 12:28pm

  Almanac  

Moon age: 10 days,3 hours,29 minutes,78%

Waxing Gibbous
78%
Illuminated
10 days in cycle

 Moonrise:

 Moonset:

 Sunrise:

 Sunset:

 Solar Noon:

1:19pm

3:10am

6:38am

5:49pm

12:16pm

2min 28s more daylight tomorrow 

  Solar Radiation 

(Current Solar)
  663 W/m2 (90%)
(Todays High)
 712 W/m2@12:38pm
Feels like: 58.1°F in the sun

Rain

 Rain Today:

 Rain Rate (/hr):

 Rain last hour:

 Rain Yesterday:

 This Month:

 Season Total:

2 Days Since Last Rain Day

0.00 in

0.000 in

0.00 in

0.00 in

0.55 in

22.89 in

Updated Time

Updated: 2/25/18  1:23pm

(Updated  sec ago)

Humidity & Barometer

 Humidity:

 Wetbulb:

 Dew Point:

 Barometer:

40% 

41.6°F 

26.3°F 

30.340 inHg 

 Baro Trend:  Falling Slowly 
Northern Calif
Preparedness
Fire 
Level 

    UV Index  

(Current UV)
3.2  Medium
(Todays High) @ 11:55am
3.7   Medium

National Weather Service Forecast

This
Afternoon
This Afternoon: Mostly Sunny
Mostly Sunny
Tonight

Tonight: Rain And Snow
Rain And Snow
Monday

Monday: Light Snow then Snow Showers
Light Snow then Snow Showers
Monday
Night
Monday Night: Chance Snow Showers then Partly Cloudy
Chance Snow Showers
Tuesday

Tuesday: Sunny
Sunny
Tuesday
Night
Tuesday Night: Partly Cloudy
Partly Cloudy
Hi 50 °F Lo 34 °F Hi 39 °F Lo 28 °F Hi 48 °F Lo 31 °F

Foresthill Probe 2 Stats  
Foresthill Probe 2: is located on Thomas Street
at 3000 feet. The main Foresthill Weather site
is located on Melody ln at the 2860 foot elevation

Light Air
49.7°F
9.8°C
Temp Rate:
+1.7°F
2.0 mph
Gusting to
4.0 mph
(Humidity)
41%
Wind from NW
320°  NW
Updated: 25/02/18 - 13:20:03
 Todays High: 49.8°F 13:01
 Todays Low: 29.4°F 06:09
 Rain Today: 0.00 in
 Season Total: 23.63 in

Foresthill Wx: Monthly,Yearly, Highs and Lows 

Foresthill  
This Weather Data is coming from the main Foresthill
Weather site located on Melody ln at the 2860 foot
elevation
Not Foresthill Probe 2
Weather Data
Month
  High
Month
  Low
Year
High
Year
Low
Temp 67.9°F
2/3/18
21.9°F
2/23/18
67.9°F
2/3/18
21.9°F
2/23/18
Humidity 100%
2/12/18
15%
2/10/18
100%
1/8/18
15%
2/10/18
Heat Index 68.3°F
2/3/18
27.1°F
2/20/18
68.3°F
2/3/18
27.1°F
2/20/18
Wind Chill 67.9°F
2/3/18
9.2°F
2/23/18
67.9°F
2/3/18
9.2°F
2/23/18
Wind Gust 31 mph
2/12/18
0 mph
2/1/18
31 mph
1/16/18
0 mph
1/1/18
Barometer 30.49 in
2/24/18
29.74 in
2/11/18
30.55 in
1/27/18
29.63 in
1/9/18
ET 0.10 in
2/3/18
0.00 in
2/1/18
0.10 in
2/3/18
0.00 in
1/1/18
Dew Point 51.5°F
2/2/18
7.6°F
2/11/18
52.5°F
1/5/18
7.6°F
2/11/18
Pacific Satellite US Radar Satellite Imagery Sacramento,CA.  (click to enlarge)
NWS Weather Forecast - Summary
Updated: Sun Feb 25 2018 .DISC - 5:10am (PST)
Current Interstate Highway Conditions for I-80 & US-50

[I 80: IN THE SAN FRANCISCO BAY AREA - SOLANO CO]
no traffic restrictions are reported for this area.

[I 80: IN THE NORTHERN CALIFORNIA AREA & SIERRA NEVADA]
no traffic restrictions are reported for this area.

[US 50: IN THE SACRAMENTO VALLEY & THE LAKE TAHOE BASIN]
no traffic restrictions are reported for this area.
NWS Weather Forecast: This Afternoon and Tonight (Updated: Sun, 25-Feb-2018 3:16am PST)
This
Afternoon
This Afternoon: Mostly Sunny
Mostly Sunny

Hi 50 °F
NWS forecast: Mostly sunny. High near 50, with temperatures falling to around 43 in the afternoon. Southwest wind 3 to 8 mph.
Tonight

Tonight: Rain And Snow
Rain And Snow

Lo 34 °F
NWS forecast: Rain and snow after 10pm. Mostly cloudy, with a low around 34. South southeast wind 7 to 10 mph. Chance of precipitation is 100%. New snow accumulation of around one inch possible.
YR.NO 10 Day Weather forecast
Last update: 02/24/2018 @ 23:34
Next update: 02/25/2018 @ 12:00
Provided by: 22
      Temperature Precipitation Pressure Wind  
Today
02/25/2018
10:00 12:00 46°F   30.28 inHg Light air from west 3 mph
  12:00 18:00 48°F   30.26 inHg Light breeze from west-southwest 6 mph
  18:00 00:00 39°F   30.16 inHg Light breeze from southeast 6 mph
    (Click to enlarge)
meteogram

    Forecast for next 9 days

      Temperature Precip Pressure Wind  
Monday
02/26/2018
00:00 06:00 34°F 0.25 in 30.16 inHg Gentle breeze from south-southeast 8 mph
  06:00 12:00 32°F 0.46 in 30.03 inHg Gentle breeze from south-southeast 8 mph
  12:00 18:00 36°F 0.09 in 30.00 inHg Light breeze from south 6 mph
  18:00 00:00 30°F   29.93 inHg Light air from northeast 3 mph
      Temperature Precip Pressure Wind  
Tuesday
02/27/2018
00:00 06:00 30°F   29.90 inHg Light breeze from northeast 5 mph
  06:00 12:00 28°F   29.93 inHg Light breeze from northeast 6 mph
  12:00 18:00 45°F   29.95 inHg Light air from north-northwest 3 mph
  16:00 22:00 41°F   29.96 inHg Light breeze from west-northwest 6 mph
  22:00 04:00 23°F   30.09 inHg Light breeze from east-northeast 7 mph
      Temperature Precip Pressure Wind  
Wednesday
02/28/2018
04:00 10:00 21°F   30.10 inHg Light breeze from east 6 mph
  10:00 16:00 39°F   30.19 inHg Light breeze from south 4 mph
  16:00 22:00 39°F   30.15 inHg Light breeze from south 6 mph
  22:00 04:00 36°F 0.06 in 30.12 inHg Light breeze from east-southeast 6 mph
      Temperature Precip Pressure Wind  
Thursday
03/01/2018
04:00 10:00 34°F 0.50 in 29.99 inHg Gentle breeze from south-southeast 10 mph
  10:00 16:00 34°F 0.37 in 29.85 inHg Moderate breeze from south-southeast 15 mph
  16:00 22:00 36°F 0.32 in 29.78 inHg Moderate breeze from south-southwest 12 mph
  22:00 04:00 30°F 0.56 in 29.74 inHg Gentle breeze from south-southwest 10 mph
      Temperature Precip Pressure Wind  
Friday
03/02/2018
04:00 10:00 28°F 0.17 in 29.79 inHg Gentle breeze from south-southwest 9 mph
  10:00 16:00 32°F 0.04 in 29.93 inHg Light breeze from south 7 mph
  16:00 22:00 34°F 0.03 in 29.88 inHg Light breeze from south-southeast 4 mph
  22:00 04:00 28°F 0.22 in 29.91 inHg Light breeze from east-southeast 5 mph
      Temperature Precip Pressure Wind  
Saturday
03/03/2018
04:00 10:00 27°F 0.02 in 29.92 inHg Light breeze from southeast 5 mph
  10:00 16:00 36°F 0.12 in 29.94 inHg Light air from south-southwest 2 mph
  16:00 22:00 34°F 0.51 in 29.91 inHg Light air from west 3 mph
  22:00 04:00 28°F 0.04 in 30.01 inHg Light air from west 3 mph
      Temperature Precip Pressure Wind  
Sunday
03/04/2018
04:00 10:00 28°F   30.13 inHg Light air from south 3 mph
  10:00 16:00 36°F   30.25 inHg Light air from south-southwest 2 mph
  16:00 22:00 37°F   30.26 inHg Light breeze from west 4 mph
  22:00 04:00 23°F   30.32 inHg Light breeze from east-northeast 4 mph
      Temperature Precip Pressure Wind  
Monday
03/05/2018
04:00 10:00 16°F   30.30 inHg Light breeze from east-northeast 6 mph
  10:00 16:00 43°F   30.32 inHg Light air from north-northwest 1 mph
  16:00 22:00 39°F   30.24 inHg Light breeze from west 4 mph
  22:00 04:00 23°F   30.24 inHg Light breeze from east-northeast 5 mph
      Temperature Precip Pressure Wind  
Tuesday
03/06/2018
04:00 10:00 18°F   30.17 inHg Light breeze from east-northeast 6 mph
  10:00 16:00 50°F   30.17 inHg Light air from south-southeast 1 mph

NOAA Local Storm Report
KIRKWOOD   ( More )
DATE
02/22/2018
TIME
9:41 PM
COUNTY
EL DORADO
STATE
CA
GEOGRAPHIC
38.70N 120.07W
SOURCE
PUBLIC
SNOW MEASURED AT 10.5 INCH
elevation 7800 feet snowfall 10. 5 inches
How Close Are We To this Month's Temperature Record ?
Updated Sunday, Feb 25, 2018- 1:20:01 PM

Current Temperature: 49.7°F

February's High: Temperature Record 70.3°F - Set on Sun, Feb 7, 2016 - 2:27:25 PM
We are currently 20.6°F Less than this Month's record High

February's Low: Temperature Record 21.9°F - Set on Fri, Feb 23, 2018 - 6:14:29 AM
We are currently 27.8°F More than this Month's record Low

Weather History For Sunday, February 25, 2018


On this Day - In Weather History ...
Data courtesy of weatherforyou.com
powered by Cumulus v1.9.3 (1059)
Ambient Weather VWS v14.00
Top Contact Website Map Copyright © 2007 - 2018 Foresthillweather.com Never base important decisions on this or any weather information obtained from the Internet